period_start,C,m1,H,J0,J1,J2,J3,J4,J5,JA,JB,JC,JD,JJ,JK,JN,#
2017-07-11 00:04:59,0.02,0.25,0.00,28.50,32.11,34.48,13.50,44.18,1004.90,2011.90,3407.01,2990.18,3424.75,600.23,578.61,9.62,0000 0000 0000 0000 000000
2017-07-11 00:10:00,0.01,0.25,0.00,28.52,32.13,34.50,13.44,44.16,1004.91,2011.84,3406.70,2990.01,3424.15,599.96,578.32,9.67,0000 0000 0000 0000 000000
2017-07-11 00:15:01,0.09,0.25,0.00,28.54,32.16,34.52,13.43,44.15,1004.90,2011.55,3404.64,2988.47,3422.36,600.00,578.38,9.73,0000 0000 0000 0000 000000
2017-07-11 00:20:03,0.01,0.25,0.00,28.55,32.18,34.55,13.44,44.11,1004.90,2011.30,3404.00,2987.74,3421.20,599.82,578.09,9.78,0000 0000 0000 0000 000000
2017-07-11 00:25:04,-0.00,0.25,0.00,28.56,32.20,34.58,13.49,44.13,1004.89,2011.12,3403.93,2987.13,3421.00,600.22,578.56,9.83,0000 0000 0000 0000 000000
2017-07-11 00:30:05,0.01,0.25,0.00,28.57,32.22,34.61,13.50,44.23,1004.86,2011.05,3403.28,2987.00,3420.97,600.15,578.40,9.88,0000 0000 0000 0000 000000
2017-07-11 00:35:07,0.04,0.25,0.00,28.60,32.25,34.63,13.40,44.15,1004.87,2011.00,3402.58,2986.24,3420.14,599.96,578.20,9.93,0000 0000 0000 0000 000000
2017-07-11 00:40:08,0.02,0.26,0.00,28.61,32.27,34.66,13.46,44.18,1004.88,2011.00,3402.02,2986.00,3419.53,600.11,578.34,9.98,0000 0000 0000 0000 000000
2017-07-11 00:45:10,0.01,0.26,0.00,28.62,32.29,34.67,13.49,44.13,1004.83,2011.00,3401.78,2985.96,3419.03,600.13,578.22,10.03,0000 0000 0000 0000 000000
2017-07-11 00:50:11,0.03,0.26,0.00,28.65,32.31,34.69,13.46,44.14,1004.84,2011.00,3401.05,2985.29,3418.97,599.90,578.02,10.08,0000 0000 0000 0000 000000
2017-07-11 00:55:12,0.02,0.26,0.00,28.65,32.33,34.72,13.41,44.11,1004.83,2011.00,3400.70,2985.02,3418.39,599.98,578.19,10.13,0000 0000 0000 0000 000000
2017-07-11 01:00:14,0.03,0.26,0.00,28.67,32.36,34.74,13.47,44.18,1004.77,2010.98,3399.87,2984.51,3417.79,599.97,578.17,10.18,0000 0000 0000 0000 000000
2017-07-11 01:05:15,0.02,0.26,0.00,28.69,32.38,34.76,13.43,44.13,1004.57,2010.96,3399.05,2984.00,3417.04,600.18,578.08,10.23,0000 0000 0000 0000 000000
2017-07-11 01:10:16,0.03,0.26,0.00,28.71,32.40,34.77,13.45,44.17,1004.47,2010.80,3398.30,2983.41,3416.37,599.83,577.60,10.28,0000 0000 0000 0000 000000
2017-07-11 01:15:17,-0.01,0.26,0.00,28.72,32.42,34.79,13.42,44.17,1004.54,2010.26,3397.49,2982.83,3415.67,600.05,577.97,10.33,0000 0000 0000 0000 000000
2017-07-11 01:20:18,0.04,0.26,0.00,28.75,32.45,34.82,13.37,44.24,1004.54,2010.10,3396.28,2981.87,3414.62,599.68,577.39,10.38,0000 0000 0000 0000 000000
2017-07-11 01:25:20,0.06,0.27,0.00,28.77,32.47,34.84,13.43,44.08,1004.43,2010.01,3394.71,2980.88,3413.37,599.94,577.56,10.43,0000 0000 0000 0000 000000
2017-07-11 01:30:21,0.03,0.27,0.00,28.79,32.50,34.87,13.41,44.17,1004.42,2010.00,3393.93,2980.07,3412.71,599.75,577.40,10.48,0000 0000 0000 0000 000000
2017-07-11 01:35:22,0.03,0.27,0.00,28.81,32.52,34.88,13.40,44.24,1004.41,2010.00,3393.07,2979.72,3411.98,599.62,577.22,10.53,0000 0000 0000 0000 000000
2017-07-11 01:40:23,0.03,0.27,0.00,28.83,32.54,34.90,13.45,44.15,1004.41,2009.99,3392.18,2978.95,3411.09,600.08,577.53,10.58,0000 0000 0000 0000 000000
2017-07-11 01:45:24,0.11,0.28,0.00,28.85,32.56,34.92,13.48,44.21,1004.41,2009.95,3390.39,2977.64,3409.65,600.03,577.29,10.63,0000 0000 0000 0000 000000
2017-07-11 01:50:26,0.03,0.28,0.00,28.86,32.58,34.94,13.43,44.16,1004.41,2009.65,3388.51,2976.28,3408.04,600.12,577.52,10.68,0000 0000 0000 0000 000000
2017-07-11 01:55:27,0.02,0.28,0.00,28.88,32.60,34.96,13.47,44.18,1004.40,2009.22,3387.13,2975.29,3406.93,599.97,577.47,10.73,0000 0000 0000 0000 000000
2017-07-11 02:00:28,0.05,0.28,0.00,28.90,32.62,34.98,13.49,44.17,1004.37,2009.07,3385.98,2974.42,3406.02,600.10,577.51,10.78,0000 0000 0000 0000 000000
2017-07-11 02:05:30,0.03,0.29,0.00,28.92,32.65,35.00,13.50,44.18,1004.28,2009.02,3384.98,2973.80,3405.16,600.30,577.49,10.83,0000 0000 0000 0000 000000
2017-07-11 02:10:31,0.05,0.29,0.00,28.93,32.66,35.02,13.41,44.16,1004.11,2009.00,3383.86,2973.01,3404.27,600.10,577.24,10.88,0000 0000 0000 0000 000000
2017-07-11 02:15:33,0.04,0.29,0.00,28.95,32.68,35.04,13.46,44.21,1004.04,2009.00,3383.03,2972.30,3403.71,600.11,577.23,10.93,0000 0000 0000 0000 000000
2017-07-11 02:20:34,0.02,0.29,0.00,28.97,32.70,35.05,13.36,44.13,1004.11,2009.00,3382.29,2971.98,3403.03,599.85,576.85,10.98,0000 0000 0000 0000 000000
2017-07-11 02:25:35,0.05,0.30,0.00,29.00,32.72,35.07,13.48,44.11,1004.02,2009.00,3381.50,2971.22,3402.32,600.15,577.08,11.03,0000 0000 0000 0000 000000
2017-07-11 02:30:36,0.05,0.30,0.00,29.03,32.75,35.09,13.46,44.13,1003.93,2008.99,3380.47,2970.46,3401.41,600.09,576.90,11.08,0000 0000 0000 0000 000000
2017-07-11 02:35:37,0.01,0.30,0.00,29.06,32.76,35.11,13.45,44.17,1003.92,2008.96,3379.98,2970.00,3400.92,600.09,576.78,11.13,0000 0000 0000 0000 000000
2017-07-11 02:40:38,0.03,0.30,0.00,29.09,32.79,35.14,13.34,44.16,1003.92,2008.84,3379.22,2969.60,3400.17,599.64,576.42,11.18,0000 0000 0000 0000 000000
2017-07-11 02:45:40,-0.00,0.30,0.00,29.12,32.81,35.16,13.43,44.18,1003.92,2008.69,3378.84,2969.05,3399.98,599.87,576.53,11.23,0000 0000 0000 0000 000000
2017-07-11 02:50:41,-0.00,0.30,0.00,29.14,32.83,35.17,13.47,44.18,1003.92,2008.29,3378.04,2968.82,3399.21,600.19,576.77,11.28,0000 0000 0000 0000 000000
2017-07-11 02:55:42,0.02,0.30,0.00,29.17,32.86,35.19,13.39,44.16,1003.91,2008.11,3377.23,2968.11,3398.93,599.88,576.46,11.33,0000 0000 0000 0000 000000
2017-07-11 03:00:43,0.00,0.30,0.00,29.19,32.87,35.22,13.37,44.18,1003.90,2008.01,3376.94,2967.99,3398.15,600.01,576.53,11.38,0000 0000 0000 0000 000000
2017-07-11 03:05:45,0.03,0.30,0.00,29.21,32.90,35.23,13.44,44.18,1003.90,2008.01,3376.21,2967.57,3397.93,599.63,576.21,11.43,0000 0000 0000 0000 000000
2017-07-11 03:10:46,0.03,0.31,0.00,29.23,32.92,35.26,13.33,44.16,1003.83,2008.00,3375.60,2967.01,3397.12,599.63,576.07,11.48,0000 0000 0000 0000 000000
2017-07-11 03:15:47,0.05,0.31,0.00,29.25,32.94,35.28,13.33,44.19,1003.72,2008.00,3374.54,2966.32,3396.45,599.93,576.29,11.53,0000 0000 0000 0000 000000
2017-07-11 03:20:48,0.05,0.31,0.00,29.28,32.96,35.31,13.43,44.27,1003.64,2008.00,3373.52,2965.62,3395.63,600.23,576.43,11.58,0000 0000 0000 0000 000000
2017-07-11 03:25:49,0.04,0.31,0.00,29.30,32.98,35.33,13.39,44.12,1003.51,2008.00,3372.39,2964.84,3394.76,600.15,576.37,11.63,0000 0000 0000 0000 000000
2017-07-11 03:30:51,0.04,0.32,0.00,29.31,33.00,35.34,13.42,44.23,1003.63,2008.00,3371.26,2964.05,3393.91,600.04,576.18,11.68,0000 0000 0000 0000 000000
2017-07-11 03:35:52,0.04,0.32,0.00,29.33,33.03,35.37,13.40,44.17,1003.71,2008.00,3370.46,2963.60,3393.11,599.95,576.14,11.73,0000 0000 0000 0000 000000
2017-07-11 03:40:54,0.01,0.32,0.00,29.36,33.05,35.39,13.47,44.16,1003.46,2007.93,3370.01,2963.03,3392.85,600.21,576.09,11.78,0000 0000 0000 0000 000000
2017-07-11 03:45:55,0.00,0.32,0.00,29.39,33.08,35.41,13.33,44.13,1003.43,2007.60,3369.19,2962.68,3392.05,599.59,575.44,11.83,0000 0000 0000 0000 000000
2017-07-11 03:50:56,-0.00,0.32,0.00,29.41,33.10,35.44,13.42,44.17,1003.43,2007.15,3368.71,2962.04,3391.53,600.11,575.98,11.89,0000 0000 0000 0000 000000
2017-07-11 03:55:58,0.22,0.33,0.00,29.43,33.12,35.46,13.41,44.16,1003.41,2007.02,3365.22,2958.67,3387.66,600.00,575.79,11.94,0000 0000 0000 0000 000000
2017-07-11 04:00:59,0.02,0.33,0.00,29.45,33.15,35.48,13.39,44.13,1003.42,2007.01,3363.98,2957.96,3386.77,599.74,575.45,11.99,0000 0000 0000 0000 000000
2017-07-11 04:06:01,0.04,0.33,0.00,29.47,33.17,35.50,13.42,44.13,1003.40,2007.00,3363.09,2957.22,3386.04,600.25,575.93,12.04,0000 0000 0000 0000 000000
2017-07-11 04:11:02,0.03,0.33,0.00,29.50,33.20,35.52,13.40,44.23,1003.33,2007.00,3362.33,2956.88,3385.52,599.87,575.49,12.09,0000 0000 0000 0000 000000
2017-07-11 04:16:04,0.11,0.34,0.00,29.52,33.22,35.55,13.34,44.13,1003.20,2006.99,3360.79,2955.49,3384.15,599.77,575.30,12.14,0000 0000 0000 0000 000000
2017-07-11 04:21:05,0.16,0.35,0.00,29.54,33.24,35.56,13.31,44.15,1002.99,2006.94,3357.59,2952.35,3380.32,599.94,575.32,12.19,0000 0000 0000 0000 000000
2017-07-11 04:26:06,0.01,0.35,0.00,29.57,33.26,35.59,13.35,44.22,1002.96,2006.81,3356.69,2951.95,3379.73,599.80,575.06,12.24,0000 0000 0000 0000 000000
2017-07-11 04:31:07,0.02,0.35,0.00,29.60,33.29,35.60,13.31,44.16,1002.95,2006.71,3355.97,2951.27,3379.04,599.77,575.08,12.29,0000 0000 0000 0000 000000
2017-07-11 04:36:09,-0.02,0.35,0.00,29.62,33.31,35.63,13.37,44.14,1002.94,2006.22,3355.22,2951.00,3378.80,600.06,575.23,12.34,0000 0000 0000 0000 000000
2017-07-11 04:41:10,0.01,0.35,0.00,29.64,33.33,35.66,13.38,44.32,1002.94,2006.10,3354.95,2950.87,3378.10,599.59,574.73,12.39,0000 0000 0000 0000 000000
2017-07-11 04:46:11,0.03,0.35,0.00,29.66,33.35,35.68,13.37,44.27,1002.94,2006.01,3354.25,2950.14,3377.95,600.09,575.18,12.44,0000 0000 0000 0000 000000
2017-07-11 04:51:13,0.01,0.35,0.00,29.68,33.38,35.70,13.38,44.17,1002.94,2006.00,3353.90,2950.00,3377.26,600.24,575.33,12.49,0000 0000 0000 0000 000000
2017-07-11 04:56:14,0.06,0.35,0.00,29.70,33.40,35.72,13.42,44.17,1002.93,2005.99,3352.73,2949.24,3376.50,600.20,575.12,12.54,0000 0000 0000 0000 000000
2017-07-11 05:01:15,0.06,0.36,0.00,29.72,33.42,35.74,13.35,44.15,1002.78,2005.98,3351.20,2948.23,3375.42,599.93,574.85,12.59,0000 0000 0000 0000 000000
2017-07-11 05:06:16,0.06,0.36,0.00,29.75,33.45,35.77,13.40,44.19,1002.57,2005.94,3349.57,2947.34,3374.31,599.77,574.48,12.64,0000 0000 0000 0000 000000
2017-07-11 05:11:17,-0.00,0.36,0.00,29.77,33.47,35.79,13.40,44.15,1002.51,2005.87,3348.92,2946.99,3373.93,599.91,574.60,12.69,0000 0000 0000 0000 000000
2017-07-11 05:16:19,0.02,0.36,0.00,29.80,33.49,35.82,13.31,44.20,1002.53,2005.67,3348.08,2946.42,3373.16,599.73,574.31,12.74,0000 0000 0000 0000 000000
2017-07-11 05:21:20,-0.00,0.36,0.00,29.82,33.51,35.85,13.37,44.24,1002.51,2005.40,3347.58,2946.00,3372.91,600.19,574.70,12.79,0000 0000 0000 0000 000000
2017-07-11 05:26:21,0.02,0.37,0.00,29.84,33.53,35.85,13.33,44.22,1002.47,2005.10,3346.28,2945.32,3372.00,599.65,574.19,12.84,0000 0000 0000 0000 000000
2017-07-11 05:31:23,0.03,0.37,0.00,29.87,33.55,35.88,13.35,44.23,1002.46,2005.05,3345.25,2944.98,3371.26,599.99,574.32,12.89,0000 0000 0000 0000 000000
2017-07-11 05:36:24,0.02,0.37,0.00,29.89,33.57,35.90,13.32,44.13,1002.46,2005.01,3344.91,2944.53,3370.99,600.18,574.43,12.94,0000 0000 0000 0000 000000
2017-07-11 05:41:25,0.03,0.37,0.00,29.92,33.60,35.92,13.41,44.21,1002.46,2005.00,3344.04,2944.04,3370.42,599.87,574.20,12.99,0000 0000 0000 0000 000000
2017-07-11 05:46:27,0.04,0.37,0.00,29.94,33.62,35.94,13.40,44.17,1002.46,2005.00,3342.96,2943.68,3369.74,600.17,574.44,13.04,0000 0000 0000 0000 000000
2017-07-11 05:51:28,0.03,0.37,0.00,29.97,33.64,35.97,13.39,44.20,1002.46,2005.00,3341.89,2942.97,3368.95,600.07,574.18,13.09,0000 0000 0000 0000 000000
2017-07-11 05:56:29,0.04,0.38,0.00,29.98,33.67,35.99,13.43,44.27,1002.46,2004.98,3341.04,2942.30,3368.18,600.31,574.43,13.14,0000 0000 0000 0000 000000
2017-07-11 06:01:31,0.01,0.38,0.00,30.00,33.69,36.01,13.38,44.16,1002.46,2004.97,3340.52,2942.00,3367.99,600.04,574.13,13.19,0000 0000 0000 0000 000000
2017-07-11 06:06:32,0.03,0.38,0.00,30.03,33.71,36.04,13.38,44.23,1002.45,2004.89,3339.80,2941.68,3367.26,599.74,573.83,13.24,0000 0000 0000 0000 000000
2017-07-11 06:11:33,-0.01,0.38,0.00,30.05,33.73,36.06,13.34,44.20,1002.45,2004.60,3339.06,2941.06,3366.97,599.93,573.94,13.29,0000 0000 0000 0000 000000
2017-07-11 06:16:34,-0.01,0.38,0.00,30.07,33.75,36.08,13.31,44.18,1002.42,2004.15,3338.75,2940.99,3366.36,599.98,573.90,13.34,0000 0000 0000 0000 000000
2017-07-11 06:21:35,0.01,0.38,0.00,30.08,33.78,36.11,13.36,44.21,1002.40,2004.01,3338.08,2940.70,3366.00,600.03,574.01,13.39,0000 0000 0000 0000 000000
2017-07-11 06:26:37,0.02,0.38,0.00,30.10,33.80,36.13,13.32,44.18,1002.28,2004.00,3337.87,2940.10,3365.76,600.03,574.09,13.44,0000 0000 0000 0000 000000
2017-07-11 06:31:38,0.02,0.38,0.00,30.12,33.82,36.14,13.37,44.08,1002.18,2004.00,3337.16,2940.00,3365.11,600.15,573.87,13.49,0000 0000 0000 0000 000000
2017-07-11 06:36:40,0.00,0.38,0.00,30.13,33.84,36.17,13.35,44.22,1002.19,2004.00,3336.93,2939.91,3364.99,600.13,573.85,13.54,0000 0000 0000 0000 000000
2017-07-11 06:41:41,0.03,0.38,0.00,30.15,33.86,36.19,13.36,44.17,1002.12,2003.98,3336.21,2939.39,3364.77,599.97,573.66,13.59,0000 0000 0000 0000 000000
2017-07-11 06:46:42,0.01,0.38,0.00,30.17,33.88,36.21,13.29,44.14,1002.02,2003.96,3336.00,2939.03,3364.09,599.92,573.56,13.64,0000 0000 0000 0000 000000
2017-07-11 06:51:43,0.01,0.38,0.00,30.17,33.90,36.23,13.39,44.18,1002.01,2003.91,3335.50,2939.00,3364.00,599.83,573.42,13.69,0000 0000 0000 0000 000000
2017-07-11 06:56:44,0.01,0.38,0.00,30.18,33.92,36.25,13.37,44.08,1002.00,2003.91,3335.02,2938.96,3363.87,600.23,573.80,13.74,0000 0000 0000 0000 000000
2017-07-11 07:01:46,0.01,0.38,0.00,30.20,33.94,36.27,13.32,44.06,1001.98,2003.69,3334.78,2938.44,3363.20,600.00,573.57,13.79,0000 0000 0000 0000 000000
2017-07-11 07:06:47,-0.01,0.38,0.00,30.20,33.96,36.30,13.41,44.24,1001.99,2003.43,3334.08,2938.02,3363.00,600.26,573.81,13.84,0000 0000 0000 0000 000000
2017-07-11 07:11:49,-0.01,0.38,0.00,30.21,33.98,36.31,13.37,44.28,1002.00,2003.14,3333.90,2937.99,3362.78,600.13,573.59,13.89,0000 0000 0000 0000 000000
2017-07-11 07:16:50,0.02,0.38,0.00,30.22,34.00,36.33,13.33,44.02,1002.00,2003.02,3333.19,2937.82,3362.08,599.96,573.48,13.94,0000 0000 0000 0000 000000
2017-07-11 07:21:51,0.02,0.39,0.00,30.22,34.01,36.35,13.41,44.08,1001.98,2003.00,3332.95,2937.13,3361.98,600.55,573.99,13.99,0000 0000 0000 0000 000000
2017-07-11 07:26:52,0.03,0.39,0.00,30.24,34.03,36.38,13.32,44.15,1001.97,2003.00,3332.22,2936.83,3361.47,600.07,573.51,14.05,0000 0000 0000 0000 000000
2017-07-11 07:31:54,0.11,0.39,0.00,30.25,34.05,36.38,13.38,44.11,1001.97,2003.00,3330.16,2935.13,3359.19,599.79,573.17,14.10,0000 0000 0000 0000 000000
2017-07-11 07:36:55,0.01,0.39,0.00,30.27,34.06,36.40,13.29,44.15,1001.98,2003.00,3329.71,2934.94,3358.97,599.68,573.08,14.15,0000 0000 0000 0000 000000
2017-07-11 07:41:56,0.03,0.39,0.00,30.27,34.08,36.42,13.33,44.14,1001.97,2002.98,3329.05,2934.54,3358.39,599.96,573.32,14.20,0000 0000 0000 0000 000000
2017-07-11 07:46:58,0.01,0.40,0.00,30.27,34.10,36.44,13.34,44.14,1001.97,2002.92,3328.80,2934.04,3358.01,599.84,573.19,14.25,0000 0000 0000 0000 000000
2017-07-11 07:51:59,0.01,0.40,0.00,30.28,34.11,36.45,13.38,44.13,1001.97,2002.79,3328.04,2933.95,3357.62,600.08,573.33,14.30,0000 0000 0000 0000 000000
2017-07-11 07:57:00,0.00,0.40,0.00,30.30,34.13,36.46,13.38,44.15,1001.97,2002.54,3327.79,2933.48,3357.02,600.06,573.37,14.35,0000 0000 0000 0000 000000
2017-07-11 08:02:01,-0.00,0.40,0.00,30.30,34.15,36.48,13.36,44.10,1001.97,2002.30,3327.11,2933.08,3356.97,600.01,573.23,14.40,0000 0000 0000 0000 000000
2017-07-11 08:07:03,-0.01,0.40,0.00,30.30,34.16,36.49,13.32,44.18,1001.97,2002.10,3326.91,2932.96,3356.42,599.97,573.32,14.45,0000 0000 0000 0000 000000
2017-07-11 08:12:04,0.05,0.40,0.00,30.32,34.17,36.51,13.29,44.11,1001.97,2002.02,3325.96,2932.10,3355.38,600.06,573.20,14.50,0000 0000 0000 0000 000000
2017-07-11 08:17:05,0.03,0.40,0.00,30.33,34.20,36.53,13.38,44.24,1001.95,2002.01,3324.99,2931.71,3354.87,600.50,573.72,14.55,0000 0000 0000 0000 000000
2017-07-11 08:22:06,0.14,0.40,0.00,30.35,34.21,36.54,13.39,44.23,1001.96,2002.02,3323.14,2930.07,3353.07,600.01,573.25,14.60,0000 0000 0000 0000 000000
2017-07-11 08:27:08,0.13,0.41,0.00,30.35,34.22,36.55,13.37,44.22,1001.97,2002.00,3320.35,2927.70,3350.25,599.58,572.87,14.65,0000 0000 0000 0000 000000
2017-07-11 08:32:09,0.15,0.42,0.00,30.35,34.24,36.57,13.34,44.26,1001.97,2002.00,3317.13,2925.50,3347.80,600.05,573.23,14.70,0000 0000 0000 0000 000000
2017-07-11 08:37:11,0.04,0.42,0.00,30.36,34.25,36.58,13.39,44.15,1001.95,2002.00,3316.00,2924.52,3346.82,600.15,573.34,14.75,0000 0000 0000 0000 000000
2017-07-11 08:42:12,0.03,0.43,0.00,30.37,34.27,36.59,13.39,44.18,1001.90,2002.00,3315.15,2923.99,3346.03,600.29,573.47,14.80,0000 0000 0000 0000 000000
2017-07-11 08:47:13,0.04,0.43,0.00,30.37,34.28,36.60,13.30,44.11,1001.90,2001.98,3314.63,2923.42,3345.34,599.66,572.86,14.85,0000 0000 0000 0000 000000
2017-07-11 08:52:14,0.01,0.43,0.00,30.37,34.30,36.62,13.31,44.26,1001.85,2001.93,3313.88,2923.00,3344.92,600.01,573.10,14.90,0000 0000 0000 0000 000000
2017-07-11 08:57:15,0.02,0.43,0.00,30.39,34.31,36.63,13.33,44.08,1001.57,2001.78,3313.10,2922.58,3344.20,599.73,572.61,14.95,0000 0000 0000 0000 000000
2017-07-11 09:02:16,0.01,0.43,0.00,30.40,34.32,36.65,13.38,44.26,1001.49,2001.68,3312.50,2922.03,3343.94,600.12,572.95,15.00,0000 0000 0000 0000 000000
2017-07-11 09:07:17,0.03,0.43,0.00,30.40,34.33,36.66,13.35,44.22,1001.47,2001.46,3311.51,2921.43,3342.94,599.95,572.92,15.05,0000 0000 0000 0000 000000
2017-07-11 09:12:19,0.06,0.43,0.00,30.40,34.35,36.67,13.38,44.19,1001.42,2001.16,3309.85,2920.20,3341.56,599.90,572.65,15.10,0000 0000 0000 0000 000000
2017-07-11 09:17:20,0.04,0.44,0.00,30.41,34.35,36.67,13.32,44.29,1001.78,2001.09,3308.70,2919.12,3340.21,599.98,572.98,15.15,0000 0000 0000 0000 000000
2017-07-11 09:22:21,0.00,0.44,0.00,30.42,34.37,36.69,13.29,44.20,1001.97,2001.03,3308.30,2919.00,3339.99,599.85,572.71,15.20,0000 0000 0000 0000 000000
2017-07-11 09:27:23,0.01,0.44,0.00,30.42,34.37,36.71,13.31,44.13,1001.87,2001.00,3308.00,2918.83,3339.74,600.08,573.08,15.25,0000 0000 0000 0000 000000
2017-07-11 09:32:24,0.03,0.44,0.00,30.42,34.38,36.72,13.24,44.16,1001.61,2001.00,3307.58,2918.24,3339.13,599.65,572.45,15.30,0000 0000 0000 0000 000000
2017-07-11 09:37:25,0.01,0.44,0.00,30.42,34.40,36.72,13.35,44.16,1001.50,2001.00,3307.03,2918.02,3339.00,600.56,573.35,15.35,0000 0000 0000 0000 000000
2017-07-11 09:42:27,0.00,0.44,0.00,30.42,34.40,36.74,13.25,44.16,1001.51,2001.00,3306.92,2918.00,3338.96,599.50,572.37,15.40,0000 0000 0000 0000 000000
2017-07-11 09:47:28,0.02,0.44,0.00,30.42,34.40,36.74,13.38,44.14,1001.48,2001.00,3306.32,2917.97,3338.43,600.09,572.86,15.45,0000 0000 0000 0000 000000
2017-07-11 09:52:29,0.06,0.44,0.00,30.43,34.42,36.74,13.32,44.18,1001.38,2001.00,3305.34,2917.06,3337.69,599.72,572.55,15.50,0000 0000 0000 0000 000000
2017-07-11 09:57:31,0.06,0.45,0.00,30.44,34.42,36.76,13.31,44.18,1001.46,2001.00,3303.82,2915.92,3336.37,600.03,572.83,15.55,0000 0000 0000 0000 000000
2017-07-11 10:02:32,0.04,0.45,0.00,30.45,34.42,36.76,13.34,44.17,1001.48,2000.99,3303.03,2915.07,3335.58,600.20,572.94,15.60,0000 0000 0000 0000 000000
2017-07-11 10:07:33,0.01,0.45,0.00,30.43,34.43,36.77,13.34,44.16,1001.48,2000.99,3302.78,2915.00,3335.05,599.90,572.67,15.65,0000 0000 0000 0000 000000
2017-07-11 10:12:34,0.00,0.45,0.00,30.43,34.45,36.78,13.28,44.07,1001.47,2000.94,3302.12,2914.98,3334.99,599.81,572.67,15.70,0000 0000 0000 0000 000000
2017-07-11 10:17:36,0.01,0.45,0.00,30.44,34.45,36.79,13.34,44.11,1001.48,2000.83,3302.00,2914.67,3334.89,600.00,572.78,15.75,0000 0000 0000 0000 000000
2017-07-11 10:22:37,0.01,0.45,0.00,30.43,34.45,36.79,13.30,44.25,1001.48,2000.72,3301.76,2914.16,3334.39,599.65,572.48,15.80,0000 0000 0000 0000 000000
2017-07-11 10:27:38,0.01,0.45,0.00,30.44,34.45,36.79,13.31,44.11,1001.48,2000.69,3301.10,2914.01,3334.03,599.91,572.67,15.85,0000 0000 0000 0000 000000
2017-07-11 10:32:39,0.00,0.46,0.00,30.42,34.45,36.79,13.34,44.05,1001.47,2000.73,3300.91,2914.00,3333.98,600.03,572.74,15.90,0000 0000 0000 0000 000000
2017-07-11 10:37:41,0.04,0.46,0.00,30.42,34.47,36.79,13.33,44.06,1001.25,2000.78,3300.14,2913.77,3333.62,599.80,572.48,15.95,0000 0000 0000 0000 000000
2017-07-11 10:42:42,0.04,0.46,0.00,30.42,34.47,36.80,13.35,44.13,1001.28,2000.88,3299.51,2913.09,3333.02,600.19,572.91,16.00,0000 0000 0000 0000 000000
2017-07-11 10:47:43,0.05,0.46,0.00,30.42,34.47,36.81,13.30,44.20,1001.33,2000.93,3298.64,2912.52,3332.25,600.03,572.87,16.05,0000 0000 0000 0000 000000
2017-07-11 10:52:45,0.01,0.46,0.00,30.42,34.47,36.81,13.34,44.15,1001.19,2000.90,3298.01,2912.01,3331.93,599.71,572.37,16.10,0000 0000 0000 0000 000000
2017-07-11 10:57:46,0.03,0.46,0.00,30.42,34.48,36.82,13.40,44.29,1001.40,2000.85,3297.46,2911.88,3331.19,599.83,572.59,16.15,0000 0000 0000 0000 000000
2017-07-11 11:02:47,0.00,0.46,0.00,30.42,34.48,36.81,13.32,44.25,1001.48,2000.68,3296.98,2911.24,3330.94,599.94,572.80,16.20,0000 0000 0000 0000 000000
2017-07-11 11:07:48,0.03,0.47,0.00,30.40,34.49,36.81,13.38,44.33,1001.46,2000.65,3296.41,2910.99,3330.31,600.24,573.01,16.25,0000 0000 0000 0000 000000
2017-07-11 11:12:50,0.02,0.47,0.00,30.40,34.50,36.81,13.37,44.13,1001.41,2000.64,3295.98,2910.53,3329.97,600.05,572.87,16.30,0000 0000 0000 0000 000000
2017-07-11 11:17:51,0.01,0.47,0.00,30.40,34.50,36.82,13.43,44.25,1001.45,2000.39,3295.13,2909.99,3329.14,600.12,572.94,16.35,0000 0000 0000 0000 000000
2017-07-11 11:22:53,0.07,0.47,0.00,30.39,34.50,36.82,13.30,44.23,1001.45,2000.43,3294.40,2909.30,3328.65,599.82,572.68,16.41,0000 0000 0000 0000 000000
2017-07-11 11:27:54,0.02,0.47,0.00,30.39,34.50,36.83,13.31,44.28,1001.48,2000.55,3293.86,2908.99,3328.04,600.17,572.99,16.46,0000 0000 0000 0000 000000
2017-07-11 11:32:55,0.03,0.47,0.00,30.37,34.50,36.83,13.30,44.24,1001.48,2000.56,3293.10,2908.61,3327.87,599.75,572.66,16.51,0000 0000 0000 0000 000000
2017-07-11 11:37:57,-0.00,0.47,0.00,30.37,34.50,36.83,13.32,44.38,1001.48,2000.39,3292.73,2908.00,3327.08,600.04,573.03,16.56,0000 0000 0000 0000 000000
2017-07-11 11:42:58,0.09,0.48,0.00,30.37,34.50,36.82,13.38,44.29,1001.46,2000.48,3291.68,2907.13,3326.14,600.28,573.16,16.61,0000 0000 0000 0000 000000
2017-07-11 11:47:59,0.03,0.48,0.00,30.37,34.50,36.82,13.30,44.22,1001.11,2000.73,3291.00,2906.83,3325.73,599.63,572.33,16.66,0000 0000 0000 0000 000000
2017-07-11 11:53:01,0.06,0.48,0.00,30.37,34.50,36.83,13.26,44.21,1001.04,2000.78,3290.05,2905.97,3324.82,600.01,572.67,16.71,0000 0000 0000 0000 000000
2017-07-11 11:58:02,0.05,0.49,0.00,30.35,34.50,36.84,13.41,44.33,1001.02,2000.78,3288.87,2905.08,3323.82,600.08,572.80,16.76,0000 0000 0000 0000 000000
2017-07-11 12:03:03,0.05,0.49,0.00,30.35,34.50,36.83,13.38,44.26,1001.01,2000.69,3287.93,2904.18,3322.90,599.78,572.44,16.81,0000 0000 0000 0000 000000
2017-07-11 12:08:04,0.05,0.49,0.00,30.35,34.50,36.83,13.32,44.23,1001.00,2000.65,3286.85,2903.38,3321.87,600.19,572.86,16.86,0000 0000 0000 0000 000000
2017-07-11 12:13:06,0.04,0.49,0.00,30.34,34.50,36.83,13.33,44.24,1001.01,2000.63,3285.80,2902.61,3320.91,600.06,572.81,16.91,0000 0000 0000 0000 000000
2017-07-11 12:18:07,0.04,0.50,0.00,30.33,34.50,36.83,13.39,44.22,1001.00,2000.71,3284.97,2901.93,3320.05,600.02,572.72,16.96,0000 0000 0000 0000 000000
2017-07-11 12:23:08,0.05,0.50,0.00,30.32,34.50,36.83,13.43,44.33,1001.00,2000.68,3284.07,2901.11,3319.24,599.93,572.62,17.01,0000 0000 0000 0000 000000
2017-07-11 12:28:10,0.06,0.50,0.00,30.32,34.50,36.83,13.39,44.32,1001.01,2000.84,3283.17,2900.50,3318.47,600.11,572.82,17.06,0000 0000 0000 0000 000000
2017-07-11 12:33:11,0.08,0.51,0.00,30.32,34.50,36.83,13.35,44.36,1001.01,2000.91,3281.65,2899.38,3317.24,600.17,572.87,17.11,0000 0000 0000 0000 000000
2017-07-11 12:38:12,0.11,0.51,0.00,30.32,34.50,36.82,13.37,44.43,1001.01,2000.95,3279.64,2897.67,3315.37,599.95,572.66,17.16,0000 0000 0000 0000 000000
2017-07-11 12:43:14,0.09,0.52,0.00,30.30,34.50,36.82,13.39,44.41,1001.00,2000.97,3277.90,2896.28,3313.76,600.06,572.91,17.21,0000 0000 0000 0000 000000
2017-07-11 12:48:15,0.07,0.52,0.00,30.30,34.50,36.82,13.45,44.29,1000.99,2000.98,3276.32,2894.97,3312.31,600.69,573.42,17.26,0000 0000 0000 0000 000000
2017-07-11 12:53:16,0.09,0.52,0.00,30.30,34.49,36.82,13.39,44.38,1000.99,2000.99,3274.70,2893.72,3310.82,599.74,572.52,17.31,0000 0000 0000 0000 000000
2017-07-11 12:58:17,0.07,0.53,0.00,30.29,34.48,36.81,13.35,44.41,1000.97,2000.99,3273.23,2892.44,3309.41,599.86,572.65,17.36,0000 0000 0000 0000 000000